This demonstration page uses our WeatherBlox Daily Observations layout. Learn more.

Left ArrowRight Arrow

34.74481, -87.66753

Hourly Observations for July 9, 2019

Temp ( °F °C ) Dew Point ( °F °C ) Humidity (%) Winds ( mph kmh ) Pressure ( in mb ) Visibility ( mi km ) Precip ( " mm )
12:53 am 00:53 Clear 79 26.1 75 23.9 88 88 Calm 29.91 1013 10 16 0.00 0.00
1:53 am 01:53 Clear 78 25.6 75 23.9 90 90 Calm 29.91 1013 10 16 0.00 0.00
2:53 am 02:53 Clear 78 25.6 75 23.9 90 90 Calm 29.90 1012 10 16 0.00 0.00
3:53 am 03:53 Clear 77 25 74 23.3 90 90 Calm 29.89 1012 10 16 0.00 0.00
4:53 am 04:53 Clear 77 25 74 23.3 90 90 Calm 29.91 1013 10 16 0.00 0.00
5:53 am 05:53 Sunny 76 24.4 73 22.8 91 91 Calm 29.94 1014 10 16 0.00 0.00
6:53 am 06:53 Sunny 79 26.1 75 23.9 88 88 Calm 29.96 1015 10 16 0.00 0.00
7:53 am 07:53 Sunny 82 27.8 74 23.3 77 77 NE 3 6 29.97 1015 10 16 0.00 0.00
8:53 am 08:53 Sunny 84 28.9 75 23.9 74 74 Calm 29.98 1015 10 16 0.00 0.00
9:53 am 09:53 Sunny 88 31.1 76 24.4 68 68 Calm 29.97 1015 10 16 0.00 0.00
11:53 am 11:53 Mostly Sunny 93 33.9 72 22.2 50 50 VRB 3 6 29.96 1015 10 16 0.00 0.00
12:53 pm 12:53 Mostly Sunny 94 34.4 72 22.2 49 49 VRB 6 9 29.96 1015 10 16 0.00 0.00
1:53 pm 13:53 Mostly Sunny 96 35.6 72 22.2 46 46 Calm 29.94 1014 10 16 0.00 0.00
2:53 pm 14:53 Mostly Sunny 95 35 73 22.8 49 49 NNE 5 7 29.93 1013 10 16 0.00 0.00
3:53 pm 15:53 Partly Cloudy 97 36.1 73 22.8 46 46 VRB 7 11 29.92 1013 10 16 0.00 0.00
4:53 pm 16:53 Sunny 94 34.4 72 22.2 49 49 NE 3 6 29.92 1013 10 16 0.00 0.00
5:53 pm 17:53 Mostly Sunny 94 34.4 73 22.8 51 51 ENE 5 7 29.91 1013 10 16 0.00 0.00
6:53 pm 18:53 Sunny 92 33.3 72 22.2 52 52 ENE 5 7 29.92 1013 10 16 0.00 0.00
7:53 pm 19:53 Sunny 89 31.7 73 22.8 59 59 NNE 3 6 29.93 1014 10 16 0.00 0.00
8:53 pm 20:53 Clear 87 30.6 74 23.3 65 65 Calm 29.94 1014 10 16 0.00 0.00
9:53 pm 21:53 Clear 82 27.8 76 24.4 82 82 Calm 29.96 1015 10 16 0.00 0.00
10:53 pm 22:53 Clear 81 27.2 76 24.4 85 85 Calm 29.97 1015 10 16 0.00 0.00
11:53 pm 23:53 Clear 80 26.7 76 24.4 87 87 Calm 29.97 1015 10 16 0.00 0.00

Powered by AerisWeather